Location: Sungai Buloh
(3.1000°N, 113.0000°E)
Time: 17:25:30
(UTC+00:00)

Spelda - Pass Details

Date: 12 January 2026
Orbit: 296 x 28087 km, 10.0° (Epoch: 11 February)

Event Time Altitude Azimuth Distance (km) Brightness Sun altitude
Rises 11:52:03 0° 281° (W) 3,908 8.6 -18.7°
Reaches altitude 10° 11:55:55 10° 283° (WNW) 1,865 6.8 -19.6°
Enters shadow 11:58:41 50° 298° (WNW) 455 3.1 -20.3°
